Regional Weather Roundup
Issued by NWS

Home | Current Version | Previous Version | Text Only | Print | Product List | Glossary Off
Versions: 1 2 3 4 5 6 7 8 9 10 11 12 13 14 15 16 17 18 19 20 21 22 23 24 25 26 27 28 29 30 31 32 33 34 35 36 37 38 39 40 41 42 43 44 45 46 47 48 49 50

000
ASUS43 KLOT 031400
RWRIL

ILLINOIS REGIONAL WEATHER ROUNDUP
NATIONAL WEATHER SERVICE CHICAGO/ROMEOVILLE IL
900 AM CDT SUN MAY 03 2015

NOTE: "FAIR" INDICATES FEW OR NO CLOUDS BELOW 12,000 FEET WITH NO
SIGNIFICANT WEATHER AND/OR OBSTRUCTIONS TO VISIBILITY.

* THESE STATIONS ARE NOT UNDER NWS QUALITY CONTROL. THEY ALSO MAY NOT
  REPORT WEATHER SUCH AS PRECIPITATION OR FOG.

ILZ001-002-007-009-015-016-024-031500-
NORTHWEST ILLINOIS

CITY           SKY/WX    TMP DP  RH WIND       PRES   REMARKS
MOLINE         LGT RAIN  61  51  70 S6        29.92F
$$

ILZ003-004-008-010-011-017-018-031500-
NORTH CENTRAL ILLINOIS

CITY           SKY/WX    TMP DP  RH WIND       PRES   REMARKS
ROCKFORD       NOT AVBL
$$

ILZ005-006-012>014-019>023-031500-
NORTHEAST ILLINOIS

CITY           SKY/WX    TMP DP  RH WIND       PRES   REMARKS
CHICAGO-OHARE  PTSUNNY   67  43  41 SW12      29.97S
CHICAGO-MIDWAY NOT AVBL
AURORA         PTSUNNY   66  47  50 S12       29.98S
WAUKEGAN       NOT AVBL
DUPAGE AIRPORT PTSUNNY   65  47  52 S13       29.97S
WHEELING       MOSUNNY   68  44  42 S13       29.98S
NORTHERLY ISL    N/A     67  42  40 S13         N/A
$$

LMZ740>746-031500-
SOUTHERN LAKE MICHIGAN

STATION/POSITION SKY/WX   TEMP    WIND        PRES    VSBY  WAVE
                          AIR SEA DIR/SP/G                  HT/PER
                          (F)     (DEG/KT/KT) (MB)    (MI)  (FT/S)
HARRISON CRIB              62     180/ 14/ 16   N/A
BURNHAM HARBOR             64     180/  8/ 11   N/A
CALUMET HARBOR             63     180/  5/ 10   N/A
BURNS HARBOR               65     190/ 12/ 17 1016.6S
MICHIGAN CITY              63     160/ 11/ 15   N/A
MICHIGAN CITY 6N           57 50  190/  6/  8   N/A           1
ST. JOSEPH                 55 48  210/  8/  8   N/A           1
$$

ILZ025>027-034>036-040-047-049-050-058-095>099-031500-
WEST-CENTRAL ILLINOIS

CITY           SKY/WX    TMP DP  RH WIND       PRES   REMARKS
$$

ILZ028>032-037-038-041>044-048-051>054-059>061-031500-
CENTRAL ILLINOIS

CITY           SKY/WX    TMP DP  RH WIND       PRES   REMARKS
PEORIA         NOT AVBL
SPRINGFIELD    PTSUNNY   69  48  47 S13       30.01R
TAYLORVILLE    NOT AVBL
$$

ILZ033-039-045-046-055>057-062-063-031500-
EAST-CENTRAL ILLINOIS

CITY           SKY/WX    TMP DP  RH WIND       PRES   REMARKS
CHAMPAIGN      MOSUNNY   72  43  35 S15       30.04R
$$

ILZ079-100>102-031500-
SOUTHWEST ILLINOIS

CITY           SKY/WX    TMP DP  RH WIND       PRES   REMARKS
ALTON          MOSUNNY   66 N/A N/A S12       30.04R
CAHOKIA*       MOSUNNY   70  47  43 S9        30.04R
$$

ILZ064>066-069>071-074>076-080>082-084>086-088>090-092>094-031500-
SOUTH-CENTRAL ILLINOIS

CITY           SKY/WX    TMP DP  RH WIND       PRES   REMARKS
CARBONDALE     SUNNY     67  49  52 S9        30.08R
$$

ILZ067-068-072-073-078-083-087-091-031500-
SOUTHEAST ILLINOIS

CITY           SKY/WX    TMP DP  RH WIND       PRES   REMARKS
$$

ABBREVIATIONS USED IN REMARKS
   TC - TEMPERATURE IN CELSIUS
  WCI - WIND CHILL INDEX
   HX - HEAT INDEX
  VSB - VISIBILITY
$$



USA.gov is the U.S. government's official web portal to all federal, state and local government web resources and services.